sat.trackr.live / text

‹ back to catalog

STARLINK-6374

NORAD 57338 · 2023-099L

PAYLOAD ACTIVE UNKNOWN

§ Identity

Operator
Country
US
Launch date
2023-07-16
Launch site
AFETR
Launch vehicle
Mass (kg)
RCS (m²)

Purposes: comms

External: N2YO · Heavens-Above · Gunter

§ Orbital elements

Epoch: 2026-09-20T14:29:53.298240Z

Period
94.27 min
Inclination
43.0006°
Eccentricity
0.0000983
Mean motion
15.27576097 rev/d
Perigee alt
482.4 km
Apogee alt
483.7 km
Semi-major
6,861.2 km
B*
-1.1373e-5
RAAN
231.8323°
Arg perigee
264.3557°
Mean anomaly
95.7182°
Rev number
17,588

§ Raw data

STARLINK-63741 57338U 23099L   26263.60408910 -.00000575  00000+0 -11373-4 0  99932 57338  43.0006 231.8323 0000983 264.3557  95.7182 15.27576097175885

JSON: /api/v1/satellites/57338 · /tle

For live sub-satellite position, see the globe view (requires WebGL).

§ Visibility from observer

Set your observer location to see the next 7 days of passes ≥ 10°. The values pass through the URL so the page stays shareable.

No JS? Fill the form by hand. The geolocation button needs JavaScript.